Welcome to the New NWS' Forecast!
Most changes are behind the scenes, but click here for differences you might notice.
Latest weather observations around

Williamsburg-Whitley County Airport (KBYL)

Using English Units (Switch to International System of Units)
Date/ Time (EDT) Wind (mph) Vis. (mi) Weather Sky Cond. Temp (°F) Rel. Humidity Wind Chill (°F) Heat Index (°F) Pressure Precip. (in)
Air Dwpt 6 hour Altimeter (inHg) Sea level (inHg) 1 hr 3 hr 6 hr
Max Min
Sep 19 23:55 Calm 5 Clear   72 72     100%   73 30.08        
Sep 19 23:35 Calm 4 Clear   72 72     100%   73 30.07        
Sep 19 23:15 Calm 5 Clear   72 72     100%   73 30.07        
Sep 19 22:55 Calm 7 Clear   72 72     100%   73 30.07        
Sep 19 22:35 Calm 8 Clear   73 73     100%   75 30.07        
Sep 19 22:15 Calm 8 Clear   73 73     100%   75 30.07        
Sep 19 21:55 Calm 7 Clear   73 73     100%   75 30.07        
Sep 19 21:35 Calm 5 Clear   73 73     100%   75 30.07        
Sep 19 17:55 WNW 3 10 Clear   86 70     59%   91 30.02        
Sep 19 17:35 NW 5 10 Clear   86 72     62%   92 30.02        
Sep 19 17:15 Calm 10 Clear   86 68     55%   89 30.02        
Sep 19 16:55 NW 3 10 Clear   86 68     55%   89 30.02        
Sep 19 16:35 Calm 10 Clear   86 68     55%   89 30.02        
Sep 19 16:15 N 3 10 Clear   84 68     58%   87 30.02        
Sep 19 15:55 NNE 3 10 Clear   88 68     52%   91 30.03        
Sep 19 15:35 Calm 10 Clear   88 68     52%   91 30.03        
Sep 19 15:15 Calm 10 Clear   86 68     55%   89 30.03        
Sep 19 14:55 N 5 10 Clear   86 68     55%   89 30.04        
Sep 19 14:35 NNE 5 10 Clear   86 68     55%   89 30.04        
Sep 19 14:15 Calm 10 Clear   86 68     55%   89 30.05        
Sep 19 13:55 Calm 10 Clear   86 68     55%   89 30.05        
Sep 19 13:35 N 3 10 Clear   84 70     62%   88 30.06        
Sep 19 13:15 NNW 6 10 Clear   86 70     59%   91 30.06        
Sep 19 12:55 Calm 10 Clear   84 70     62%   88 30.07        
Sep 19 12:35 Calm 10 Clear   82 70     66%   86 30.07        
Sep 19 12:15 S 3 10 Clear   82 72     70%   87 30.07        
Sep 19 11:55 SW 3 10 Clear   82 72     70%   87 30.07        
Sep 19 11:35 Calm 10 Clear   81 72     74%   85 30.08        
Sep 19 10:55 WSW 3 10 Clear   77 72     83%   78 30.07        
Sep 19 10:35 Calm 10 Clear   75 72     89%   77 30.07        
Sep 19 10:15 Calm 10 Clear   73 72     94%   75 30.07        
Sep 19 09:55 Calm 10 Clear   72 72     100%   73 30.07        
Sep 19 09:35 Calm 10 Clear   68 68     100%     30.07        
Sep 19 09:15 Calm 6 Clear   68 68     100%     30.06        
Sep 19 08:55 Calm 1.25 Clear   66 66     100%     30.06        
Sep 19 08:35 Calm   Clear   66 66     100%     30.06        
Sep 19 08:15 Calm   Clear   66 66     100%     30.06        
Sep 19 07:55 Calm 0.5 Clear   64 64     100%     30.05        
Sep 19 07:35 Calm 2 Clear   64 64     100%     30.04        
Sep 19 07:15 Calm 7 Clear   64 64     100%     30.04        
Sep 19 06:55 Calm 5 Clear   64 64     100%     30.03        
Sep 19 06:35 Calm 10 Clear   64 64     100%     30.03        
Sep 19 06:15 Calm 1.25 Clear   64 64     100%     30.03        
Sep 19 05:55 Calm 10 Clear   64 64     100%     30.02        
Sep 19 05:35 Calm 2.5 Clear   64 64     100%     30.01        
Sep 19 05:15 Calm 0.5 Clear   64 64     100%     30.01        
Sep 19 04:55 Calm   Clear   64 64     100%     30        
Sep 19 04:35 Calm 0.25 Clear   66 66     100%     30        
Sep 19 04:15 Calm 0.5 Clear   66 66     100%     30        
Sep 19 03:55 Calm 1 Clear   66 66     100%     30        
Sep 19 03:35 Calm 1.25 Clear   66 66     100%     30        
Sep 19 03:15 Calm 5 Clear   66 66     100%     30        
Sep 19 02:55 Calm 0.75 Clear   66 66     100%     30        
Sep 19 02:35 Calm 5 Clear   66 66     100%     30        
Sep 19 02:15 Calm 3 Clear   66 66     100%     30        
Sep 19 01:55 Calm 6 Clear   66 66     100%     30        
Sep 19 01:35 Calm 5 Clear   68 68     100%     30        
Sep 19 01:15 Calm 3 Clear   68 68     100%     30        
Sep 19 00:55 Calm 0.75 Clear   68 68     100%     30        
Sep 19 00:35 Calm 1 Clear   68 68     100%     30        
Sep 19 00:15 Calm 0.25 Clear   68 68     100%     30        
Sep 18 23:55 Calm   Clear   68 68     100%     30        
Sep 18 23:35 Calm   Clear   68 68     100%     30        
Sep 18 23:15 Calm 0.5 Clear   68 68     100%     30        
Sep 18 22:55 Calm 0.5 Clear   70 70     100%     30        
Sep 18 22:35 Calm 0.5 Clear   70 70     100%     30        
Sep 18 22:15 Calm 0.25 Clear   72 72     100%   73 30        
Sep 18 21:55 Calm 1.5 Clear   72 72     100%   73 30        
Sep 18 21:35 Calm 5 Clear   72 72     100%   73 29.99        
Sep 18 21:15 Calm 9 Clear   72 72     100%   73 29.98        
Sep 18 20:55 Calm 10 Clear   73 73     100%   75 29.98        
Sep 18 20:35 Calm 9 Clear   73 73     100%   75 29.97        
Sep 18 20:15 Calm 10 Clear   75 75     100%   77 29.97        
Sep 18 19:55 Calm 10 Clear   75 75     100%   77 29.97        
Sep 18 19:35 Calm 10 Clear   77 73     89%   79 29.96        
Sep 18 19:15 Calm 10 Clear   81 73     79%   85 29.97        
Sep 18 18:55 Calm 10 Clear   82 72     70%   87 29.97        
Sep 18 18:35 Calm 10 Clear   82 72     70%   87 29.97        
Sep 18 18:15 Calm 10 Clear   84 68     58%   87 29.97        
Sep 18 17:55 Calm 10 Clear   82 68     62%   85 29.97        
Sep 18 17:35 Calm 10 Clear   82 68     62%   85 29.97        
Sep 18 17:15 Calm 10 Clear   81 70     70%   84 29.96        
Sep 18 16:55 N 3 10 Clear   81 72     74%   85 29.97        
Sep 18 16:35 Calm 10 Clear   81 72     74%   85 29.97        
Sep 18 16:15 Calm 10 Clear   82 68     62%   85 29.97        
Sep 18 15:55 Calm 10 Clear   82 70     66%   86 29.97        
Sep 18 15:35 Calm 10 Clear   82 68     62%   85 29.98        
Sep 18 15:15 Calm 10 Clear   86 68     55%   89 29.98        
Sep 18 14:55 Calm 10 Clear   82 70     66%   86 29.99        
Sep 18 14:35 Calm 10 Clear   84 66     55%   87 30        
Sep 18 14:15 N 3 10 Clear   82 70     66%   86 30        
Sep 18 13:55 N 3 10 Clear   84 68     58%   87 30.01        
Sep 18 13:35 N 3 10 Clear   82 68     62%   85 30.01        
Sep 18 13:15 Calm 10 Clear   82 70     66%   86 30.02        
Sep 18 12:55 Calm 10 Clear   82 72     70%   87 30.03        
Sep 18 12:35 Calm 10 Clear   82 70     66%   86 30.03        
Sep 18 12:15 Calm 10 Clear   81 72     74%   85 30.04        
Sep 18 11:55 N 3 10 Clear   81 72     74%   85 30.04        
Sep 18 11:35 Calm 10 Clear   79 72     79%   82 30.04        
Sep 18 11:15 Calm 10 Clear   77 72     83%   78 30.04        
Sep 18 10:55 Calm 10 Clear   77 72     83%   78 30.04        
Sep 18 10:35 WNW 3 10 Clear   75 72     89%   77 30.04        
Sep 18 10:15 Calm 10 Clear   75 73     94%   77 30.04        
Sep 18 09:55 Calm 10 Clear   73 73     100%   75 30.03        
Sep 18 09:35 SSW 3 10 Clear   73 73     100%   75 30.03        
Sep 18 08:55 Calm 9 Clear   70 70     100%     30.03        
Sep 18 08:35 Calm 0.25 Clear   68 68     100%     30.03        
Sep 18 08:15 Calm 1.75 Clear   68 68     100%     30.03        
Sep 18 07:55 Calm 0.25 Clear   66 66     100%     30.03        
Sep 18 07:35 Calm 3 Clear   68 68     100%     30.03        
Sep 18 07:15 Calm 10 Clear   68 68     100%     30.03        
Sep 18 06:55 Calm 8 Clear   68 68     100%     30.02        
Sep 18 06:35 Calm 10 Clear   68 68     100%     30.02        
Sep 18 06:15 Calm 9 Clear   68 68     100%     30.01        
Sep 18 05:55 Calm 10 Clear   68 68     100%     30.01        
Sep 18 05:35 Calm 10 Clear   68 68     100%     30.01        
Sep 18 05:15 Calm 10 Clear   68 68     100%     30.01        
Sep 18 04:55 Calm 10 Clear   68 68     100%     30.01        
Sep 18 04:35 Calm 10 Clear   68 68     100%     30        
Sep 18 04:15 Calm 10 Clear   68 68     100%     30        
Sep 18 03:55 Calm 10 Clear   68 68     100%     30        
Sep 18 03:35 Calm 10 Clear   68 68     100%     30        
Sep 18 03:15 WSW 3 10 Clear   68 68     100%     30        
Sep 18 02:55 Calm 9 Clear   68 68     100%     30        
Sep 18 02:35 Calm 7 Clear   68 68     100%     30        
Sep 18 02:15 Calm 10 Clear   68 68     100%     30        
Sep 18 01:55 WSW 3 10 Clear   68 68     100%     30.01        
Sep 18 01:35 Calm 10 Clear   68 68     100%     30.01        
Sep 18 01:15 Calm 10 Clear   68 68     100%     30.01        
Sep 18 00:55 Calm 10 Clear   68 68     100%     30.01        
Sep 18 00:35 Calm 10 Clear   68 68     100%     30.01        
Sep 18 00:15 Calm 10 Clear   68 68     100%     30.02        
Sep 17 23:55 Calm 10 Clear   68 68     100%     30.02        
Sep 17 23:35 Calm 10 Clear   68 68     100%     30.02        
Sep 17 23:15 Calm 10 Clear   68 68     100%     30.02        
Sep 17 22:55 Calm 10 Clear   70 70     100%     30.01        
Sep 17 22:35 Calm 10 Clear   70 70     100%     30.01        
Sep 17 22:15 Calm 10 Clear   70 70     100%     30.01        
Sep 17 21:55 Calm 10 Clear   70 70     100%     30.01        
Sep 17 21:35 Calm 10 Clear   70 70     100%     30        
Sep 17 21:15 Calm 10 Clear   70 70     100%     29.99        
Sep 17 20:55 Calm 10 Clear   70 70     100%     29.99        
Sep 17 20:35 Calm 10 Clear   70 70     100%     29.98        
Sep 17 20:15 Calm 10 Clear   72 72     100%   73 29.97        
Sep 17 19:55 Calm 10 Clear   72 72     100%   73 29.97        
Sep 17 19:35 Calm 10 Clear   72 72     100%   73 29.97        
Sep 17 19:15 Calm 10 Clear   72 72     100%   73 29.96        
Sep 17 18:55 Calm 10 Clear   72 72     100%   73 29.96        
Sep 17 18:35 NW 5 10 Clear   72 72     100%   73 29.95        
Sep 17 18:15 WNW 3 4 Clear   72 72     100%   73 29.95        
Sep 17 17:55 WNW 3 10 Clear   73 73     100%   75 29.94        
Sep 17 17:35 W 3 10 Clear   72 72     100%   73 29.94        
Sep 17 17:15 NW 5 10 Clear   72 72     100%   73 29.93        
Sep 17 16:55 NW 5 10 Clear   72 72     100%   73 29.93        
Sep 17 16:35 WNW 7 10 Clear   72 72     100%   73 29.93        
Sep 17 16:15 NW 6 5 Clear   70 70     100%     29.92        
Sep 17 15:55 NW 3 1 Clear   70 70     100%     29.92        
Sep 17 15:35 NW 7 3 Clear   70 70     100%     29.92        
Sep 17 15:15 NW 6 3 Clear   70 70     100%     29.91        
Sep 17 14:55 NW 7 2 Clear   70 70     100%     29.91        
Sep 17 14:35 WNW 5 8 Clear   70 70     100%     29.92        
Sep 17 14:15 WNW 7 2.5 Clear   70 70     100%     29.92        
Sep 17 13:55 WNW 3 2.5 Clear   70 70     100%     29.92        
Sep 17 13:35 WNW 6 2.5 Clear   70 70     100%     29.91        
Sep 17 13:15 W 5 0.75 Clear   70 70     100%     29.91        
Sep 17 12:55 NW 5 1 Clear   70 70     100%     29.91        
Sep 17 12:35 W 3 1.25 Clear   70 70     100%     29.9        
Sep 17 12:15 W 3 8 Clear   72 72     100%   73 29.9        
Sep 17 11:55 WNW 7 2 Clear   70 70     100%     29.9        
Sep 17 11:35 W 3 1 Clear   70 70     100%     29.9        
Sep 17 11:15 W 6 1.75 Clear   70 70     100%     29.9        
Sep 17 10:55 W 3 1.25 Clear   70 70     100%     29.89        
Sep 17 10:35 SW 5 2 Clear   70 70     100%     29.89        
Sep 17 10:15 Calm 3 Clear   68 68     100%     29.89        
Sep 17 09:55 Calm 1.75 Clear   68 68     100%     29.89        
Sep 17 09:35 SW 3 3 Clear   68 68     100%     29.88        
Sep 17 09:15 SW 6 3 Clear   68 68     100%     29.88        
Sep 17 08:55 Calm 4 Clear   68 68     100%     29.88        
Sep 17 08:35 Calm 5 Clear   68 68     100%     29.87        
Sep 17 08:15 Calm 1 Clear   68 68     100%     29.87        
Sep 17 07:55 Calm 1.75 Clear   68 68     100%     29.87        
Sep 17 07:35 Calm 3 Clear   68 68     100%     29.86        
Sep 17 07:15 SW 3 7 Clear   68 68     100%     29.86        
Sep 17 06:55 SW 3 5 Clear   68 68     100%     29.85        
Sep 17 06:35 Calm 1.75 Clear   68 68     100%     29.85        
Sep 17 06:15 Calm 1.25 Clear   68 68     100%     29.85        
Sep 17 05:55 Calm 10 Clear   68 68     100%     29.84        
Sep 17 05:35 Calm 9 Clear   68 68     100%     29.84        
Sep 17 05:15 Calm 10 Clear   68 68     100%     29.84        
Sep 17 04:55 Calm 1 Clear   68 68     100%     29.84        
Sep 17 04:35 Calm 1.25 Clear   68 68     100%     29.83        
Sep 17 04:15 Calm 5 Clear   68 68     100%     29.83        
Sep 17 03:55 Calm 4 Clear   68 68     100%     29.84        
Sep 17 03:35 Calm 3 Clear   68 68     100%     29.84        
Sep 17 03:15 Calm 1.25 Clear   68 68     100%     29.84        
Sep 17 02:55 Calm 1.25 Clear   68 68     100%     29.84        
Sep 17 02:35 Calm 1.5 Clear   68 68     100%     29.84        
Sep 17 02:15 Calm 2.5 Clear   68 68     100%     29.84        
Sep 17 01:55 Calm 2 Clear   68 68     100%     29.85        
Sep 17 01:35 Calm 2.5 Clear   68 68     100%     29.85        
Sep 17 01:15 Calm 2.5 Clear   68 68     100%     29.85        
Sep 17 00:55 Calm 2 Clear   68 68     100%     29.86        
Sep 17 00:35 NNE 3 3 Clear   68 68     100%     29.86        
Sep 17 00:15 Calm 2 Clear   68 68     100%     29.86        
Sep 16 23:55 NNE 3 2 Clear   68 68     100%     29.87        
Sep 16 23:35 N 5 3 Clear   68 68     100%     29.87        
Sep 16 23:15 N 6 4 Clear   68 68     100%     29.88        
Sep 16 22:55 NNE 5 7 Clear   68 68     100%     29.88        
Sep 16 22:35 NNE 9 10 Clear   68 68     100%     29.89        
Sep 16 22:15 NNE 10 10 Clear   68 68     100%     29.89        
Sep 16 21:55 NNE 9 4 Clear   68 68     100%     29.9        
Sep 16 21:35 N 6 8 Clear   68 68     100%     29.9        
Sep 16 21:15 NNE 8 4 Clear   68 68     100%     29.91        
Sep 16 20:55 N 8 5 Clear   68 68     100%     29.91        
Sep 16 20:35 N 9 10 Clear   68 68     100%     29.91        
Sep 16 20:15 N 9 10 Clear   68 68     100%     29.91        
Sep 16 19:55 NNE 7 7 Clear   68 68     100%     29.92        
Sep 16 19:35 NNE 9 5 Clear   68 68     100%     29.93        
Sep 16 19:15 NNE 9 4 Clear   68 68     100%     29.93        
Sep 16 18:55 N 7 5 Clear   70 70     100%     29.94        
Sep 16 18:35 NNE 8 4 Clear   70 70     100%     29.94        
Sep 16 18:15 NNE 7 5 Clear   70 70     100%     29.95        
Sep 16 17:55 N 7 6 Clear   70 70     100%     29.95        
Sep 16 17:35 N 5 6 Clear   70 70     100%     29.95        
Sep 16 17:15 NNE 8 7 Clear   70 70     100%     29.95        
Sep 16 16:55 NNE 8 8 Clear   70 70     100%     29.96        
Sep 16 16:35 NNE 9 6 Clear   70 70     100%     29.96        
Sep 16 16:15 NNE 8 5 Clear   70 70     100%     29.96        
Sep 16 15:55 NNE 10 4 Clear   70 70     100%     29.97        
Sep 16 15:35 NNE 10 4 Clear   72 72     100%   73 29.97        
Sep 16 15:15 NNE 8 4 Clear   72 72     100%   73 29.98        
Sep 16 14:55 NNE 6 6 Clear   70 70     100%     29.99        
Sep 16 14:35 NNE 5 6 Clear   70 70     100%     29.99        
Sep 16 14:15 NNE 6 8 Clear   70 70     100%     30        
Sep 16 13:55 NE 8 10 Clear   70 70     100%     30.01        
Sep 16 13:35 NNE 7 3 Clear   70 70     100%     30        
Sep 16 13:15 NNE 8 5 Clear   70 70     100%     30.01        
Sep 16 12:55 NNE 7 2.5 Clear   70 70     100%     30.02        
Sep 16 12:15 NE 6 10 Clear   73 68     83%   74 30.02        
Sep 16 11:55 NE 8 10 Clear   73 68     83%   74 30.02        
Sep 16 11:35 NE 9 10 Clear   73 68     83%   74 30.02        
Sep 16 11:15 ENE 8 10 Clear   73 68     83%   74 30.02        
Sep 16 10:55 NNE 7 10 Clear   73 68     83%   74 30.02        
Sep 16 10:35 NNE 6 10 Clear   73 70     89%   75 30.02        
Sep 16 10:15 NNE 6 10 Clear   72 70     94%   73 30.03        
Sep 16 09:55 NE 6 10 Clear   72 70     94%   73 30.02        
Sep 16 09:35 NNE 7 10 Clear   72 70     94%   73 30.02        
Sep 16 09:15 NE 6 10 Clear   70 68     94%     30.02        
Sep 16 08:55 NE 6 10 Clear   70 68     94%     30.01        
Sep 16 08:35 NE 5 10 Clear   70 68     94%     30.01        
Sep 16 08:15 NNE 3 10 Clear   70 68     94%     30.01        
Sep 16 07:55 NE 5 10 Clear   68 68     100%     30.01        
Sep 16 07:35 NE 5 10 Clear   70 68     94%     30.01        
Sep 16 07:15 NE 6 10 Clear   70 68     94%     30        
Sep 16 06:55 NE 7 10 Clear   70 68     94%     30        
Sep 16 06:35 NE 7 10 Clear   70 68     94%     30        
Sep 16 06:15 Calm 10 Clear   70 68     94%     30        
Sep 16 05:55 NE 6 10 Clear   70 68     94%     30        
Sep 16 05:35 NE 5 10 Clear   70 68     94%     30        
Sep 16 05:15 NE 6 10 Clear   70 68     94%     30        
Sep 16 04:55 NNE 7 10 Clear   70 68     94%     30        
Sep 16 04:35 NE 6 10 Clear   70 68     94%     30        
Sep 16 04:15 NNE 3 10 Clear   72 68     88%   73 30.01        
Sep 16 03:55 Calm 10 Clear   72 68     88%   73 30.01        
Sep 16 03:35 NNE 3 10 Clear   72 68     88%   73 30.01        
Sep 16 03:15 NNE 6 10 Clear   72 68     88%   73 30.01        
Sep 16 02:55 NNE 6 10 Clear   72 68     88%   73 30.02        
Sep 16 02:35 NNE 6 10 Clear   72 68     88%   73 30.02        
Sep 16 02:15 NE 6 10 Clear   72 68     88%   73 30.03        
Sep 16 01:55 Calm 10 Clear   72 68     88%   73 30.03        
Sep 16 01:35 NE 5 10 Clear   72 68     88%   73 30.03        
Sep 16 01:15 NNE 6 10 Clear   72 68     88%   73 30.03        
Sep 16 00:55 NNE 5 10 Clear   72 68     88%   73 30.03        
Sep 16 00:35 NNE 3 10 Clear   72 68     88%   73 30.04        
Sep 16 00:15 NE 5 10 Clear   73 68     83%   74 30.04        
Sep 15 23:55 NNE 5 10 Clear   73 68     83%   74 30.04        
Sep 15 23:35 NNE 6 10 Clear   73 66     78%   74 30.05        
Sep 15 23:15 Calm 10 Clear   73 66     78%   74 30.04        
Sep 15 22:55 NE 3 10 Clear   73 66     78%   74 30.04        
Sep 15 22:35 ENE 5 10 Clear   73 66     78%   74 30.05        
Sep 15 22:15 ENE 3 10 Clear   75 68     78%   76 30.05        
Sep 15 21:55 ENE 6 10 Clear   75 68     78%   76 30.05        
Sep 15 21:35 NE 6 10 Clear   73 68     83%   74 30.05        
Sep 15 21:15 Calm 10 Clear   75 68     78%   76 30.05        
Sep 15 20:55 NE 5 10 Clear   75 68     78%   76 30.05        
Sep 15 20:35 NE 6 10 Clear   75 68     78%   76 30.04        
Sep 15 20:15 NE 7 10 Clear   75 68     78%   76 30.04        
Sep 15 19:55 ENE 7 10 Clear   77 66     69%   78 30.04        
Sep 15 19:35 NE 9 10 Clear   77 66     69%   78 30.04        
Sep 15 19:15 NE 8 10 Clear   81 68     66%   83 30.03        
Sep 15 18:55 ENE 8 10 Clear   82 66     58%   85 30.03        
Sep 15 18:35 ENE 10 10 Clear   82 68     62%   85 30.03        
Sep 15 18:15 ENE 8 10 Clear   82 68     62%   85 30.03        
Sep 15 17:55 ENE 6 10 Clear   82 70     66%   86 30.02        
Sep 15 17:35 NE 9 10 Clear   84 70     62%   88 30.02        
Sep 15 17:15 ENE 8 10 Clear   84 70     62%   88 30.02        
Sep 15 16:55 NE 9 10 Clear   84 70     62%   88 30.02        
Sep 15 16:35 ENE 7 10 Clear   84 68     58%   87 30.02        
Sep 15 16:15 NE 13 10 Clear   86 68     55%   89 30.02        
Sep 15 15:55 NNE 10 10 Clear   86 70     59%   91 30.02        
Sep 15 15:35 NE 10 10 Clear   86 70     59%   91 30.03        
Sep 15 15:15 NE 12 10 Clear   84 70     62%   88 30.03        
Sep 15 14:55 NE 12 10 Clear   84 70     62%   88 30.03        
Sep 15 14:35 NNE 12 10 Clear   84 70     62%   88 30.04        
Sep 15 14:15 ENE 8 10 Clear   84 70     62%   88 30.04        
Sep 15 13:55 NNE 12 10 Clear   84 72     66%   90 30.05        
Sep 15 13:35 NE 9 10 Clear   82 70     66%   86 30.06        
Sep 15 13:15 ENE 8 10 Clear   82 70     66%   86 30.06        
May 15 12:15 SSW 5 10 Clear   84 68     58%   87 30.01        
May 15 11:15 SSW 6 10 Clear   81 68     66%   83 30.02        
May 15 07:55 Calm 10 Clear   66 66     100%     30.02        
May 14 20:35 Calm 10 Clear   81 66     62%   83 29.97        
May 14 18:55 S 3 10 Clear   84 64     52%   86 29.98        
Notice The following observation data may not be complete
May 14 17:55   10 Clear            %              
May 14 12:35 N 3 10 Clear   82 64     55%   84 30.1        
May 13 23:35 Calm 10 Clear   68 64     88%     30.11        
May 13 21:35 Calm 10 Clear   75 61     61%   75 30.07        
May 13 20:35 WNW 5 10 Clear   79 61     54%   79 30.06        
May 13 13:55 W 6 10 Clear   84 61     45%   84 30.11        
May 13 09:15 Calm 9 Clear   66 64     94%     30.17        
May 13 08:15 Calm 9 Clear   61 61     100%     30.16        
May 13 02:35 Calm 8 Clear   59 59     100%     30.11        
May 12 16:55 WNW 8 10 Clear   84 57     40%   83 30.1        
May 12 11:55 WSW 7 10 Clear   81 59     48%   81 30.19        
May 12 09:55 SSW 6 10 Clear   75 63     65%   75 30.19        
May 12 03:55 Calm 10 Clear   63 63     100%     30.11        
May 12 01:15 SSE 7 10 Clear   64 63     94%     30.1        
May 11 22:15 Calm 10 Clear   72 59     65%   71 30.08        
May 11 14:35 SW 8 10 Clear   84 61     45%   84 30.09